Weather History for West Plains, MO

Change the Weather History Date:

Thursday, August 14, 2014

  Actual Average Record
Temperature  
Mean Temperature 72 °F 78 °F  
Max Temperature 86 °F 90 °F 103 °F (1954)
Min Temperature 57 °F 65 °F 48 °F (2004)
Degree Days  
Heating Degree Days 0 0  
Month to date heating degree days 0 0  
Since 1 June heating degree days 4 5  
Since 1 July heating degree days 2 0  
Cooling Degree Days 7 13  
Month to date cooling degree days 143 182  
Year to date cooling degree days 792 975  
Since 1 June cooling degree days 642 853  
Growing Degree Days 20 (Base 50)    
Moisture  
Dew Point 59 °F    
Average Humidity 67    
Maximum Humidity 93    
Minimum Humidity 40    
Precipitation  
Precipitation 0.00 in 0.09 in 2.36 in (1968)
Month to date precipitation 2.75 1.40  
Year to date precipitation 21.59 28.24  
Sea Level Pressure  
Sea Level Pressure 30.06 in    
Wind  
Wind Speed 2 mph (SSW)    
Max Wind Speed 10 mph    
Max Gust Speed 14 mph    
Visibility 10 miles    
Events      
T = Trace of Precipitation, MM = Missing Value Source: NWS Daily Summary

Daily Weather History Graph

Daily Weather History Graph

Search for Another Location

Airport:

Trip Planner

Search our weather history database for the weather conditions in past years. The results will help you decide how hot, cold, wet, or windy it might be!

Date:

Astronomy

Aug. 14, 2014 Rise Set
Actual Time 6:23 AM CDT 8:00 PM CDT
Civil Twilight 5:56 AM CDT 8:27 PM CDT
Nautical Twilight 5:22 AM CDT 9:00 PM CDT
Astronomical Twilight 4:47 AM CDT 9:35 PM CDT
Moon 10:32 PM CDT (8/14) 10:52 AM CDT (8/14)
Length of Visible Light 14h 31m
Length of Day
13h 36m
Waning Gibbous, 79% of the Moon is Illuminated
Aug 14
Waning Gibbous
Aug 17
Last Quarter
Aug 25
New
Sep 2
First Quarter
Sep 8
Full

Hourly Weather History & Observations

Time (CDT) Temp. Heat Index Dew Point Humidity Pressure Visibility Wind Dir Wind Speed Gust Speed Precip Events Conditions
12:53 AM 60.1 °F - 57.0 °F 90% 30.09 in 10.0 mi Calm Calm - N/A   Clear
1:53 AM 60.1 °F - 57.0 °F 90% 30.08 in 10.0 mi Calm Calm - N/A   Clear
2:53 AM 59.0 °F - 55.9 °F 90% 30.07 in 10.0 mi Calm Calm - N/A   Clear
3:53 AM 57.9 °F - 55.0 °F 90% 30.08 in 10.0 mi Calm Calm - N/A   Clear
4:53 AM 57.0 °F - 54.0 °F 89% 30.08 in 10.0 mi Calm Calm - N/A   Clear
5:53 AM 57.0 °F - 54.0 °F 89% 30.08 in 10.0 mi Calm Calm - N/A   Clear
6:53 AM 57.9 °F - 55.0 °F 90% 30.10 in 10.0 mi Calm Calm - N/A   Clear
7:53 AM 66.0 °F - 60.1 °F 81% 30.11 in 10.0 mi Calm Calm - N/A   Clear
8:53 AM 72.0 °F - 61.0 °F 68% 30.11 in 10.0 mi SW 3.5 mph - N/A   Clear
9:53 AM 75.9 °F - 62.1 °F 62% 30.11 in 10.0 mi SW 3.5 mph - N/A   Clear
10:53 AM 78.1 °F - 59.0 °F 52% 30.10 in 10.0 mi SW 4.6 mph - N/A   Clear
12:53 PM 81.0 °F 81.7 °F 61.0 °F 50% 30.07 in 10.0 mi SW 5.8 mph - N/A   Scattered Clouds
1:53 PM 81.0 °F 81.3 °F 59.0 °F 47% 30.06 in 10.0 mi Calm Calm - N/A   Partly Cloudy
2:53 PM 82.9 °F 82.6 °F 57.9 °F 42% 30.05 in 10.0 mi West 4.6 mph - N/A   Partly Cloudy
3:53 PM 84.9 °F 84.4 °F 59.0 °F 41% 30.03 in 10.0 mi Variable 5.8 mph - N/A   Mostly Cloudy
4:53 PM 84.9 °F 84.4 °F 59.0 °F 41% 30.02 in 10.0 mi Variable 3.5 mph - N/A   Clear
5:53 PM 84.0 °F 83.3 °F 57.0 °F 40% 30.01 in 10.0 mi Calm Calm - N/A   Clear
6:53 PM 82.0 °F 82.4 °F 60.1 °F 47% 30.01 in 10.0 mi SSE 3.5 mph - N/A   Clear
7:53 PM 75.9 °F - 62.1 °F 62% 30.00 in 10.0 mi Calm Calm - N/A   Clear
8:53 PM 71.1 °F - 63.0 °F 75% 30.01 in 10.0 mi Calm Calm - N/A   Clear
9:53 PM 66.9 °F - 63.0 °F 87% 30.02 in 10.0 mi Calm Calm - N/A   Clear
10:53 PM 70.0 °F - 61.0 °F 73% 30.02 in 10.0 mi ESE 3.5 mph - N/A   Clear
11:53 PM 64.9 °F - 61.0 °F 87% 30.03 in 10.0 mi Calm Calm - N/A   Clear